[[{"header":{"parameterUnit":"m.s-1","parameterCategory":1,"la1":30.2991,"la2":30.254,"lo1":-89.0895,"lo2":-89.0444,"dy":0.0017,"dx":0.0017,"nx":28,"ny":28,"refTime":"2025-08-27T03:00:00:Z","depth":0,"parameterNumber":2,"parameterNumberName":"U-component_of_WINDS"},"data":[0,0,0,0,0,0,0,0,0,0,0,0,0,0,0,0,0,0,0,0,0,0,0,0,0,0,0,0,0,0,0,0,0,0,0,0,0,0,0,0,0,0,0,0,0,0,0,0,0,0,0,0,0,0,0,0,0,0,-1.0439,-1.0438,0,-1.0384,-1.0384,-1.0383,-1.0333,-1.0333,-1.0332,-1.0332,-1.0275,-1.0275,-1.0274,0,0,0,0,0,0,0,0,0,0,0,0,0,-1.05,-1.0499,-1.0439,-1.0438,-1.0437,-1.0384,-1.0384,-1.0383,-1.0333,-1.0333,-1.0332,-1.0331,-1.0276,-1.0275,-1.0274,0,0,0,0,0,0,0,0,0,0,0,0,0,-1.0462,-1.0498,-1.0439,-1.0406,-1.0403,-1.0385,-1.0384,-1.0383,-1.0334,-1.0333,-1.0332,-1.0331,-1.0276,-1.0275,-1.0273,-1.0283,0,0,-1.0269,-1.0268,0,0,0,0,0,0,0,0,-1.0464,-1.046,-1.0412,-1.0408,-1.0404,-1.0365,-1.0385,-1.0349,-1.0334,-1.036,-1.0332,-1.0331,-1.0306,-1.0302,-1.0294,-1.028,-1.0278,-1.0269,-1.0268,-1.0268,-1.0267,0,0,0,0,0,0,0,-1.0467,-1.0462,-1.0417,-1.0411,-1.0407,-1.0394,-1.0388,-1.0378,-1.0339,-1.0357,-1.0354,-1.0348,-1.0304,-1.0295,-1.0292,-1.0277,-1.0269,-1.0268,-1.0267,-1.0266,-1.0269,-1.027,0,0,0,0,0,0,-1.0474,-1.0464,-1.0419,-1.0415,-1.0433,-1.0394,-1.0387,-1.0378,-1.0339,-1.0332,-1.0349,-1.0346,-1.0298,-1.0294,-1.029,-1.0299,-1.0268,-1.0266,-1.0265,-1.0269,-1.027,-1.0271,0,0,0,0,0,0,-1.0476,-1.0471,-1.0421,-1.0439,-1.0432,-1.0394,-1.0385,-1.0378,-1.0369,-1.0332,-1.0325,-1.0347,-1.0297,-1.0292,-1.0285,-1.0296,-1.0266,-1.0264,-1.0267,-1.0269,-1.027,-1.0316,0,0,0,0,0,0,-1.0478,-1.0472,-1.0475,-1.0439,-1.0431,-1.0417,-1.0385,-1.0377,-1.0367,-1.0363,-1.0329,-1.0322,-1.0296,-1.0288,-1.0284,-1.0293,-1.0263,-1.0266,-1.0268,-1.027,-1.0313,-1.0319,-1.0324,0,0,0,0,0,-1.048,-1.0489,-1.0475,-1.047,-1.0434,-1.0418,-1.0413,-1.0383,-1.0368,-1.0371,-1.0347,-1.0323,-1.0296,-1.0287,-1.0283,-1.0292,-1.0265,-1.0268,-1.027,-1.0311,-1.0318,-1.0323,0,0,0,0,0,0,-1.0527,-1.0484,-1.0468,-1.0466,-1.0446,-1.041,-1.0412,-1.0391,-1.0375,-1.0371,-1.0334,-1.0327,-1.0325,-1.0308,-1.0299,-1.03,-1.0277,-1.0279,-1.0311,-1.0317,-1.0322,-1.0325,-1.0262,0,0,0,0,0,-1.0537,-1.0527,-1.0491,-1.0493,-1.0484,-1.045,-1.0442,-1.0421,-1.0398,-1.0389,-1.0365,-1.0345,-1.0331,-1.0323,-1.0309,-1.0311,-1.0303,-1.0315,-1.0321,-1.0325,-1.0326,-1.0327,-1.0332,-1.0277,-1.0277,-1.0277,0,0,-1.0557,-1.0533,-1.0529,-1.0501,-1.0483,-1.0475,-1.0443,-1.0435,-1.0428,-1.0388,-1.038,-1.0362,-1.0337,-1.0335,-1.0333,-1.0321,-1.034,-1.0328,-1.0331,-1.033,-1.0329,-1.0335,-1.0339,-1.0279,-1.0279,-1.0278,0,0,-1.059,-1.0571,-1.057,-1.0553,-1.0527,-1.0504,-1.0505,-1.0472,-1.0458,-1.045,-1.042,-1.0412,-1.039,-1.0373,-1.0361,-1.039,-1.0367,-1.0386,-1.0412,-1.0413,-1.0417,-1.0421,-1.0431,-1.0435,-1.0388,-1.0388,-1.0388,0,-1.0619,-1.0604,-1.0573,-1.0567,-1.0556,-1.052,-1.0519,-1.0504,-1.0475,-1.0468,-1.0455,-1.0427,-1.0407,-1.0401,-1.0408,-1.04,-1.0399,-1.0389,-1.0419,-1.0423,-1.0426,-1.0435,-1.0439,-1.039,-1.039,-1.039,-1.039,0,-1.0641,-1.0631,-1.0634,-1.0607,-1.0596,-1.0593,-1.0562,-1.0555,-1.0535,-1.0514,-1.0507,-1.0482,-1.0463,-1.046,-1.044,-1.0451,-1.0445,-1.0426,-1.0403,-1.0434,-1.0442,-1.0445,-1.0394,-1.0393,-1.0392,-1.0392,0,0,-1.07,-1.0656,-1.0658,-1.0645,-1.0614,-1.0606,-1.0602,-1.0583,-1.0578,-1.0559,-1.0554,-1.0537,-1.052,-1.0508,-1.0486,-1.0487,-1.0511,-1.0468,-1.0467,-1.0477,-1.0522,-1.0536,-1.0541,-1.0497,-1.0497,-1.0498,-1.0524,0,-1.0727,-1.0717,-1.0689,-1.0687,-1.0679,-1.0646,-1.0642,-1.0623,-1.0604,-1.0593,-1.0572,-1.0561,-1.0539,-1.0531,-1.0531,-1.0508,-1.052,-1.0506,-1.0492,-1.0492,-1.0499,-1.0545,-1.0559,-1.0585,-1.0527,-1.0528,-1.0528,0,-1.0757,-1.0741,-1.0738,-1.0709,-1.0704,-1.0701,-1.0682,-1.0673,-1.0651,-1.0637,-1.0623,-1.06,-1.0594,-1.0573,-1.0564,-1.0556,-1.0549,-1.0537,-1.0537,-1.0534,-1.0511,-1.0542,-1.0593,-1.0597,-1.0533,-1.0533,-1.0532,0,-1.08,-1.0778,-1.0774,-1.0764,-1.0729,-1.0728,-1.0713,-1.069,-1.0681,-1.0665,-1.0658,-1.0642,-1.0632,-1.062,-1.0593,-1.058,-1.0587,-1.0564,-1.0576,-1.0576,-1.0578,-1.0578,-1.0627,-1.0574,-1.0574,-1.0574,-1.0574,0,-1.0833,-1.0833,-1.0793,-1.079,-1.0789,-1.0758,-1.0758,-1.074,-1.072,-1.0714,-1.0684,-1.0679,-1.0643,-1.0634,-1.0613,-1.0609,-1.0605,-1.0594,-1.0588,-1.0596,-1.0598,-1.059,-1.0587,-1.0575,-1.0575,-1.0575,-1.0574,0,-1.0881,-1.0854,-1.0847,-1.0815,-1.0807,-1.0808,-1.078,-1.0776,-1.0756,-1.0749,-1.0745,-1.0713,-1.0701,-1.0673,-1.0653,-1.0639,-1.064,-1.063,-1.0648,-1.0644,-1.0657,-1.0656,-1.0703,-1.0707,-1.0652,-1.0653,-1.0653,0,-1.0903,-1.0902,-1.087,-1.0864,-1.0851,-1.0841,-1.0832,-1.0801,-1.0793,-1.0768,-1.0768,-1.0754,-1.074,-1.0722,-1.0697,-1.0682,-1.0671,-1.0689,-1.0668,-1.0677,-1.0671,-1.0671,-1.0671,-1.0693,-1.0694,-1.0694,-1.0695,0,-1.0946,-1.0933,-1.0921,-1.0904,-1.0894,-1.0879,-1.0863,-1.086,-1.0826,-1.0818,-1.0805,-1.0795,-1.0775,-1.0761,-1.0742,-1.0727,-1.0706,-1.0702,-1.0703,-1.0711,-1.0721,-1.0716,-1.0659,-1.07,-1.07,-1.0699,-1.0699,-1.0699,-1.0981,-1.0979,-1.0957,-1.0944,-1.0929,-1.0915,-1.091,-1.089,-1.0879,-1.086,-1.0843,-1.0832,-1.0811,-1.0784,-1.0771,-1.0762,-1.0751,-1.0753,-1.0754,-1.0755,-1.0758,-1.0724,-1.0758,-1.0758,-1.0758,-1.0758,-1.0758,0,-1.1022,-1.1007,-1.0995,-1.0974,-1.0965,-1.0945,-1.0927,-1.092,-1.0911,-1.0893,-1.0881,-1.0867,-1.0853,-1.0828,-1.0813,-1.0811,-1.08,-1.0808,-1.0807,-1.0804,-1.0769,-1.0769,-1.0816,-1.0816,-1.0816,-1.0816,-1.0816,-1.0816,-1.1043,-1.1038,-1.1023,-1.1011,-1.0995,-1.0984,-1.0975,-1.0962,-1.0948,-1.0933,-1.0922,-1.0906,-1.0885,-1.0868,-1.0856,-1.0849,-1.0844,-1.0855,-1.0844,-1.0812,-1.0806,-1.0801,-1.0801,-1.0854,-1.0854,-1.088,-1.088,-1.088]},{"header":{"parameterUnit":"m.s-1","parameterCategory":1,"la1":30.2991,"la2":30.254,"lo1":-89.0895,"lo2":-89.0444,"dy":0.0017,"dx":0.0017,"nx":28,"ny":28,"refTime":"2025-08-27T03:00:00:Z","depth":0,"parameterNumber":3,"parameterNumberName":"V-component_of_WINDS"},"data":[0,0,0,0,0,0,0,0,0,0,0,0,0,0,0,0,0,0,0,0,0,0,0,0,0,0,0,0,0,0,0,0,0,0,0,0,0,0,0,0,0,0,0,0,0,0,0,0,0,0,0,0,0,0,0,0,0,0,3.18,3.1801,0,3.1821,3.1821,3.1821,3.1823,3.1823,3.1822,3.1822,3.1841,3.1842,3.1843,0,0,0,0,0,0,0,0,0,0,0,0,0,3.1761,3.1761,3.18,3.1801,3.1801,3.1821,3.1821,3.1821,3.1823,3.1823,3.1822,3.1822,3.1841,3.1842,3.1843,0,0,0,0,0,0,0,0,0,0,0,0,0,3.1779,3.1762,3.18,3.1804,3.1805,3.1821,3.1821,3.1821,3.1823,3.1823,3.1822,3.1822,3.1841,3.1842,3.1843,3.1856,0,0,3.1846,3.1846,0,0,0,0,0,0,0,0,3.1778,3.1781,3.1803,3.1804,3.1804,3.1819,3.1814,3.1833,3.1823,3.1816,3.1822,3.1822,3.1834,3.1835,3.184,3.1857,3.1857,3.1846,3.1847,3.1847,3.1847,0,0,0,0,0,0,0,3.1777,3.178,3.1808,3.1804,3.1804,3.1804,3.1806,3.1818,3.1826,3.1817,3.1817,3.1819,3.1834,3.1839,3.184,3.1858,3.1846,3.1847,3.1848,3.1848,3.1886,3.1886,0,0,0,0,0,0,3.1775,3.1779,3.1808,3.1809,3.179,3.1805,3.1808,3.1815,3.1826,3.1828,3.182,3.1819,3.1837,3.1839,3.1841,3.1857,3.1847,3.1848,3.1849,3.1886,3.1886,3.1887,0,0,0,0,0,0,3.1774,3.1778,3.1807,3.1794,3.1798,3.1806,3.1814,3.1815,3.182,3.1829,3.183,3.1823,3.1837,3.184,3.1852,3.1858,3.1849,3.185,3.1885,3.1886,3.1886,3.1889,0,0,0,0,0,0,3.1773,3.1777,3.1783,3.1794,3.1798,3.1818,3.1814,3.1816,3.1822,3.1822,3.1832,3.1833,3.1837,3.1851,3.1853,3.1859,3.185,3.1885,3.1886,3.1886,3.1889,3.189,3.1891,0,0,0,0,0,3.1772,3.1782,3.1783,3.1787,3.1805,3.1818,3.1821,3.1825,3.1823,3.1828,3.1833,3.1833,3.1857,3.1852,3.1855,3.1861,3.1884,3.1885,3.1886,3.1888,3.189,3.1891,0,0,0,0,0,0,3.177,3.1784,3.1785,3.1799,3.1808,3.1819,3.1825,3.1827,3.1836,3.1835,3.184,3.1842,3.1854,3.1859,3.1853,3.1874,3.187,3.1872,3.1871,3.1872,3.1873,3.1872,3.1851,0,0,0,0,0,3.1772,3.1782,3.1793,3.1805,3.1809,3.1817,3.1823,3.1825,3.1834,3.1837,3.1844,3.1852,3.1861,3.1867,3.1876,3.189,3.1892,3.1895,3.1896,3.1897,3.1898,3.1906,3.1907,3.1889,3.1889,3.1889,0,0,3.1775,3.1784,3.1789,3.1805,3.1812,3.1822,3.182,3.183,3.1837,3.1839,3.1851,3.1856,3.1865,3.1879,3.1885,3.1883,3.1904,3.1898,3.1899,3.1899,3.1907,3.1908,3.191,3.189,3.189,3.189,0,0,3.1785,3.1793,3.1804,3.1811,3.1822,3.1827,3.183,3.1841,3.1844,3.1857,3.1859,3.1867,3.1883,3.1889,3.1895,3.1909,3.1909,3.1911,3.1917,3.1924,3.1925,3.1927,3.1931,3.1933,3.1913,3.1913,3.1913,0,3.1787,3.1803,3.1809,3.182,3.1826,3.1829,3.184,3.1847,3.1859,3.1864,3.1862,3.1882,3.1888,3.1903,3.1907,3.1911,3.1914,3.191,3.1925,3.1926,3.1927,3.1932,3.1934,3.1913,3.1913,3.1913,3.1913,0,3.1805,3.1816,3.1823,3.1837,3.1844,3.1855,3.1862,3.1869,3.1871,3.1876,3.1889,3.1897,3.1908,3.1912,3.1914,3.1927,3.1925,3.1924,3.192,3.1929,3.1934,3.1935,3.1913,3.1913,3.1913,3.1913,0,0,3.1815,3.1832,3.1835,3.1841,3.1853,3.1862,3.1872,3.1884,3.1889,3.1898,3.1907,3.1921,3.192,3.1926,3.1929,3.1935,3.1946,3.1933,3.1934,3.1935,3.196,3.1961,3.1963,3.1946,3.1946,3.1947,3.1959,0,3.1826,3.1846,3.1852,3.1869,3.1879,3.1882,3.1891,3.19,3.1905,3.1914,3.1919,3.1929,3.1927,3.1931,3.1937,3.1943,3.1951,3.1942,3.1954,3.1954,3.1951,3.1965,3.1966,3.1977,3.1961,3.1962,3.1962,0,3.1843,3.1853,3.1871,3.1882,3.1887,3.1895,3.1906,3.1915,3.1924,3.1928,3.1935,3.1937,3.1948,3.1944,3.1959,3.1953,3.1958,3.1962,3.1962,3.1963,3.1958,3.1966,3.1981,3.1983,3.1964,3.1964,3.1964,0,3.1847,3.1866,3.1879,3.1884,3.1898,3.1904,3.191,3.1919,3.1926,3.1935,3.194,3.195,3.1955,3.1963,3.1968,3.1965,3.1982,3.1979,3.1985,3.1985,3.1988,3.1987,3.2004,3.1992,3.1992,3.1992,3.1992,0,3.186,3.187,3.1881,3.1889,3.1901,3.1908,3.1919,3.1925,3.1934,3.1942,3.1946,3.1954,3.196,3.1969,3.1973,3.1984,3.1987,3.199,3.199,3.1989,3.1989,3.1992,3.1991,3.1992,3.1992,3.1992,3.1992,0,3.1867,3.1875,3.1889,3.1902,3.1905,3.1913,3.1924,3.1931,3.1937,3.1948,3.1951,3.196,3.197,3.1976,3.1989,3.1992,3.2005,3.2005,3.2002,3.2002,3.2008,3.2007,3.2026,3.2029,3.2016,3.2016,3.2016,0,3.1874,3.1882,3.1896,3.1903,3.1909,3.1919,3.1926,3.1933,3.194,3.1952,3.1958,3.1969,3.1978,3.1995,3.2002,3.2012,3.2013,3.2019,3.2014,3.2013,3.2012,3.2012,3.2012,3.2019,3.2019,3.202,3.202,0,3.1885,3.1889,3.19,3.1911,3.192,3.1929,3.1939,3.1944,3.1952,3.196,3.1971,3.1978,3.1992,3.2003,3.2014,3.2019,3.202,3.2021,3.2023,3.2022,3.2019,3.202,3.2003,3.202,3.202,3.202,3.202,3.202,3.1892,3.19,3.1911,3.1923,3.1931,3.194,3.1948,3.1955,3.1965,3.1977,3.198,3.1992,3.2002,3.2016,3.2022,3.2031,3.203,3.2033,3.2033,3.2034,3.2034,3.2018,3.2033,3.2033,3.2033,3.2033,3.2033,0,3.1904,3.1912,3.1922,3.1936,3.1945,3.1947,3.1957,3.1964,3.1975,3.1984,3.1994,3.2007,3.2017,3.2025,3.2036,3.2041,3.2042,3.2044,3.2043,3.2045,3.2035,3.2032,3.2043,3.2043,3.2043,3.2043,3.2043,3.2043,3.1911,3.1924,3.193,3.1947,3.1954,3.1966,3.1972,3.198,3.1988,3.2002,3.2012,3.2017,3.2026,3.2037,3.2047,3.2049,3.2052,3.2054,3.2056,3.2046,3.2045,3.2044,3.2042,3.2055,3.2055,3.2065,3.2065,3.2065]}]]